Location: Kerguer�zec
(48.4509°N, 4.7600°W)
Time: 00:24:12
(UTC+00:00)

ISS - Pass Details

Date: 04 March 2021
Orbit: 418 x 422 km, 51.6° (Epoch: 10 April)

Event Time Altitude Azimuth Distance (km) Brightness Sun altitude
Exits shadow 04:38:31 40° 33° (NNE) 630 -2.6 -23.1°
Drops below altitude 10° 04:41:08 10° 72° (ENE) 1,501 0.2 -22.7°
Sets 04:43:17 0° 78° (ENE) 2,366 1.6 -22.4°
